Flag for U.S.A. Weather past 2 weeks in Greeley, Colorado, U.S.A.

Now
61 °F

Passing clouds.


Feels Like: 61 °F
Forecast: 47 / 64 °F
Wind: 8 mph from Southwest

Location: Greeley / Weld

Current Time: May 28, 2015 at 11:01:12 PM

Latest Report: May 28, 2015 at 10:35 PM


Visibility: 10 mi

Pressure: 30.12 "Hg

Humidity: 63%

Dew point: 48 °F

Location of GreeleyLocation

Historic Weather in Greeley — Graph

°F

Greeley temperature yesterday

Maximum temperature yesterday: 79 °F (at 4:15 PM)
Minimum temperature yesterday: 46 °F (at 6:35 AM)
Average temperature yesterday: 62 °F

Past Weeks' High & Low Weather Summary

 TemperatureHumidityPressure
High79 °F (May 27, 4:15 PM)100% (May 14, 12:35 AM)30.39 "Hg (May 14, 12:35 AM)
Low36 °F (May 20, 12:35 AM)24% (May 14, 4:55 PM)29.64 "Hg (May 15, 3:55 PM)
Average53 °F73%30.01 "Hg
* Reported May 13 9:15 PM — May 28 9:35 PM, Greeley, Weather by CustomWeather, © 2015

Note: Actual official high and low records may vary slightly from our data, if they occured in-between our weather recording intervals... More about our weather records

Advertising

Greeley weather history for previous 24 hours

 ConditionsComfort  
Time TempWeatherWind HumidityBarometerVisibility
9:35 PM
Thu, May 28
61 °FPassing clouds.8 mph52%30.08 "Hg10 mi
9:15 PM61 °FPassing clouds.13 mph55%30.07 "Hg10 mi
8:55 PM61 °FScattered clouds.3 mph63%30.07 "Hg10 mi
8:35 PM59 °FPartly sunny.No wind77%30.06 "Hg10 mi
8:15 PM61 °FSunny.8 mph63%30.05 "Hg10 mi
7:55 PM63 °FPassing clouds.6 mph56%30.04 "Hg10 mi
7:35 PM63 °FScattered clouds.9 mph59%30.03 "Hg10 mi
7:15 PM64 °FThundershowers. Passing clouds.6 mph64%30.02 "Hg10 mi
6:55 PM63 °FThundershowers. Broken clouds.9 mph68%30.00 "Hg10 mi
6:35 PM64 °FThunderstorms. More clouds than sun.17 mph64%30.00 "Hg9 mi
5:55 PM66 °FPartly sunny.7 mph52%29.95 "Hg10 mi
5:35 PM70 °FPartly sunny.13 mph46%29.95 "Hg10 mi
4:55 PM73 °FSunny.3 mph33%29.94 "Hg10 mi
4:35 PM73 °FSunny.7 mph33%29.95 "Hg10 mi
3:55 PM73 °FSunny.9 mph33%29.96 "Hg10 mi
3:35 PM72 °FSunny.6 mph36%29.96 "Hg10 mi
3:15 PM72 °FSunny.7 mph36%29.96 "Hg10 mi
2:55 PM72 °FSunny.10 mph36%29.97 "Hg10 mi
2:35 PM72 °FSunny.14 mph36%29.98 "Hg10 mi
2:15 PM72 °FSunny.13 mph36%29.99 "Hg10 mi
1:55 PM72 °FSunny.15 mph38%29.99 "Hg10 mi
1:35 PM70 °FThundershowers. Scattered clouds.20 mph40%30.00 "Hg10 mi
1:15 PM70 °FThundershowers. Broken clouds.18 mph38%30.01 "Hg10 mi
12:55 PM72 °FThundershowers. Passing clouds.3 mph38%30.01 "Hg10 mi
12:35 PM72 °FSunny.7 mph41%30.02 "Hg10 mi
12:15 PM72 °FSunny.6 mph44%30.02 "Hg10 mi
11:55 AM73 °FSunny.3 mph41%30.03 "Hg10 mi
11:35 AM70 °FSunny.3 mph43%30.03 "Hg10 mi
11:15 AM73 °FSunny.No wind47%30.03 "Hg10 mi
10:55 AM70 °FSunny.No wind57%30.03 "Hg10 mi
10:35 AM68 °FSunny.3 mph60%30.03 "Hg10 mi
10:15 AM66 °FSunny.No wind64%30.03 "Hg10 mi
9:55 AM66 °FSunny.5 mph68%30.03 "Hg10 mi
9:35 AM64 °FSunny.8 mph73%30.04 "Hg10 mi
9:15 AM64 °FSunny.7 mph78%30.04 "Hg10 mi
8:55 AM63 °FSunny.7 mph77%30.05 "Hg10 mi
8:35 AM61 °FSunny.7 mph83%30.05 "Hg10 mi
8:15 AM61 °FSunny.7 mph83%30.05 "Hg10 mi
7:55 AM57 °FPassing clouds.8 mph88%30.05 "Hg10 mi
7:35 AM57 °FPartly sunny.10 mph88%30.06 "Hg10 mi
7:15 AM55 °FScattered clouds.5 mph94%30.06 "Hg10 mi
6:55 AM55 °FScattered clouds.12 mph94%30.06 "Hg10 mi
6:35 AM55 °FScattered clouds.No wind94%30.06 "Hg10 mi
6:15 AM55 °FPassing clouds.3 mph94%30.06 "Hg10 mi
5:55 AM54 °FPassing clouds.No wind94%30.06 "Hg10 mi
5:35 AM54 °FPassing clouds.No wind94%30.06 "Hg10 mi
5:15 AM52 °FPassing clouds.No wind100%30.06 "Hg10 mi
4:55 AM54 °FPassing clouds.6 mph94%30.04 "Hg10 mi
4:35 AM54 °FPassing clouds.8 mph94%30.04 "Hg10 mi
4:15 AM54 °FPassing clouds.9 mph88%30.04 "Hg10 mi
3:55 AM54 °FClear.5 mph94%30.03 "Hg10 mi
3:35 AM54 °FClear.6 mph94%30.03 "Hg10 mi
3:15 AM55 °FClear.No wind94%30.03 "Hg10 mi
2:55 AM55 °FPassing clouds.7 mph94%30.03 "Hg10 mi
2:35 AM57 °FPassing clouds.7 mph88%30.04 "Hg10 mi
2:15 AM57 °FOvercast.8 mph94%30.05 "Hg10 mi
1:55 AM57 °FOvercast.8 mph94%30.05 "Hg10 mi
1:35 AM57 °FPassing clouds.7 mph94%30.05 "Hg10 mi
1:15 AM57 °FClear.8 mph94%30.04 "Hg10 mi
12:55 AM57 °FClear.5 mph94%30.04 "Hg10 mi
12:35 AM59 °FClear.8 mph88%30.04 "Hg10 mi
12:15 AM57 °FPassing clouds.6 mph94%30.04 "Hg10 mi
11:55 PM
Wed, May 27
57 °FPassing clouds.6 mph94%30.04 "Hg10 mi
11:35 PM59 °FPassing clouds.8 mph88%30.05 "Hg10 mi
11:15 PM59 °FClear.10 mph88%30.05 "Hg10 mi
Weather by CustomWeather, © 2015

See weather overviewHow to use our weather pages